STARLINK-5324, 55677

Orbit data source: Space-Track

STARLINK-5324, 55677 is a payload satellite owned by SpaceX/Seattle (US) in LEO that was launched on Fri, 17 Feb 2023 UTC via an FALCON 9 launch vehicle from the Air Force Western Test Range (AFWTR). Payload-class satellites include a variety of spacecraft equipped with specific instruments for various scientific and technological missions. These include communications satellites like Starlink; space stations such as the ISS; scientific satellites like the Hubble; Earth observation satellites from companies like Planet Labs, Umbra, and HawkEye 360; GPS; miniature CubeSats for education and research; and military/defense satellites.

Loading next visibility...
Identifier
55677, 2023-021BB
Orbit
LEO
Country
Flag of USUS
Related business
Manufacturer
SpaceX/Seattle
Mission
Operational Commercial Communications
Bus & Motor
STARLINK, Unknown motor
Mass
305 kg wet, ~290 kg dry
Launch date (UTC)
2023-02-17 (3 years ago)
Launch vehicle
FALCON 9
Launch site
Air Force Western Test Range (AFWTR)
Object type
Payload
Rocket body
Debris
Shape & HBR
Box + 1 Pan, 10.1 m
Radar Cross Section
13.562 m², Large (>1 m²)

Expand to show TLE details & history
Last TLE update: 2 days ago

TLE from 2 days ago
0 STARLINK-5324
1 55677U 23021BB  26171.46624818  .00000716  00000-0  67768-4 0  9996
2 55677  69.9987 245.2737 0003434 267.8731  92.2035 14.98339322185175
Epoch: 2026-06-20T11:11Z
TLE epoch observation values (Epoch: 2026-06-20T11:11:23.842Z)
Latitude
-0.00002°
Longitude
168.74388°
Altitude
574.543 km
Speed
7.574 km/s
True Right ascension
16h 21m 05s
True Declination
0° 00' 00"
Sunlit
Object was in full shadow at epoch
Visualization orbit readout
Latitude
Unknown
Longitude
Unknown
Altitude
Unknown
Speed
Unknown
Apparent Right ascension
Unknown
Apparent Declination
Unknown
Sunlit
N/A
Visualization observer readout
Local Sidereal Time
21:39:45
Azimuth
Unknown
Elevation
Unknown
Doppler factor
Unknown
Orbital elements
Apogee altitude
572.361 km
Perigee altitude
567.589 km
Semi-major axis
6,948.112 km
Eccentricity
0.00034
Inclination
69.9987°
RAAN
245.2737°
Arg. of periapsis
267.8731°
True anomaly
92.24282°
Mean anomaly
92.2035°
Eccentric anomaly
92.22316°
Mean motion
3.74751 °/min
Orbital period
96.06 mins
BSTAR
0.000067768
Loading maneuver chart data...
Computing Atmospheric mass density...

Documentation

Showing up to 5 results
|